Regional Weather Roundup
Issued by NWS

Home | Current Version | Previous Version | Text Only | Print | Product List | Glossary On
Versions: 1 2 3 4 5 6 7 8 9 10 11 12 13 14 15 16 17 18 19 20 21 22 23 24 25 26 27 28 29 30 31 32 33 34 35 36 37 38 39 40 41 42 43 44 45 46 47 48 49 50
000
ASHW40 PHFO 251610
RWRHI

WEATHER ROUNDUP FOR HAWAII
NATIONAL WEATHER SERVICE HONOLULU HI
600 AM HST SAT OCT 25 2014

THIS IS AN AUTOMATED REPORT THAT HAS NOT BEEN QUALITY CONTROLLED.

NOTE..."FAIR" INDICATES FEW OR NO CLOUDS BELOW 12,000 FEET WITH NO
SIGNIFICANT WEATHER AND/OR OBSTRUCTIONS TO VISIBILITY.

* - THESE SITES REPORT LIMITED FIELDS

HIZ001>004-251700-
KAUAI-NIIHAU-

CITY           SKY/WX    TMP DP  RH WIND       PRES   REMARKS
LIHUE APT      PTCLDY    78  69  73 E13       30.02R
PORT ALLEN*    NOT AVBL
POIPU*         NOT AVBL
PRINCEVILLE*     N/A     73 N/A N/A MISG        N/A
KOKOLE POINT*  NOT AVBL
MOLOAA DAIRY*  NOT AVBL
WAIMEA HTS*    NOT AVBL
PUU OPAE*      NOT AVBL
PUU LUA*       NOT AVBL
MAKAHA RIDGE*  NOT AVBL
$$

HIZ005>011-251700-
OAHU-

CITY           SKY/WX    TMP DP  RH WIND       PRES   REMARKS
HONOLULU       PTCLDY    74  70  87 CALM      30.00R
KALAELOA       CLEAR     71  67  87 CALM      30.01R
KANEOHE MCB    PTCLDY    79  72  78 E5        30.01R
WHEELER FIELD  NOT AVBL
BELLOWS*       NOT AVBL
KAHUKU*        NOT AVBL
WHEELER*       NOT AVBL
WAIANAE HARBOR NOT AVBL
DILLINGHAM*      N/A     66  64  94 E1          N/A
KAHUKU TRN*      N/A     73  70  88 E7G15       N/A
KAWAILOA*        N/A     70  68  94 NE1G12      N/A
KII*             N/A     79  72  78 E13G21      N/A
MAKUA RANGE*     N/A     70  64  83 E6          N/A
OAHU FOREST NW NOT AVBL
SCHOFIELD BRK*   N/A     66  64  94 MISG        N/A
SCHOFIELD S*   NOT AVBL
WAIANAE VLY*   NOT AVBL
KUAOKALA*      NOT AVBL
HONOULIUULI*   NOT AVBL
MOKUOLOE IS*     N/A    N/A N/A N/A MISG        N/A
PALEHUA*       NOT AVBL
WAIAWA PHB*    NOT AVBL
$$

HIZ012>013-251700-
MOLOKAI-

CITY           SKY/WX    TMP DP  RH WIND       PRES   REMARKS
MOLOKAI AIRPT  PTCLDY    74  73  97 N5        30.02R
KALAUPAPA      NOT AVBL
MAKAPULAPAI*   NOT AVBL
MOLOKAI 1*     NOT AVBL
PUU ALII*      NOT AVBL
$$

HIZ016-251700-
KAHOOLAWE-

CITY           SKY/WX    TMP DP  RH WIND       PRES   REMARKS
KAHOOLAWE*     NOT AVBL
HAKIOAWA*      NOT AVBL
HONOKANAIA*      N/A     73  65  77 N7        30.01
KANELOA*         N/A     73  66  78 NE9G17    29.22S
KEALIALALO*    NOT AVBL
LUA MAKIKA*    NOT AVBL
$$

HIZ014>015-251700-
LANAI-

CITY           SKY/WX    TMP DP  RH WIND       PRES   REMARKS
LANAI CITY     FAIR      70  70 100 NE9       30.06R
LANAI 1*       NOT AVBL
$$

HIZ017>028-251700-
MAUI-

CITY           SKY/WX    TMP DP  RH WIND       PRES   REMARKS
KAHULUI        CLEAR     67  62  84 SE6       30.00R
KAPALUA-W MAUI PTCLDY    73  68  83 NE8       29.98
HANA AIRPORT   MOCLDY    70  68  94 CALM      30.04S
HANA*          NOT AVBL
HALEAKALA SUMM   N/A     43  18  36 E28G40      N/A
MAALAEA BAY*   NOT AVBL
HALEAKALA*     NOT AVBL
KAUPO GAP*     NOT AVBL
KULA 1*          N/A     53  34  48 E6          N/A
$$

HIZ023>026-251700-
BIG ISLAND OF HAWAII COAST AND LOWER SLOPES-

CITY           SKY/WX    TMP DP  RH WIND       PRES   REMARKS
KAILUA KONA    PTCLDY    75  65  70 SE5       29.97R
HILO           LGT RAIN  68  62  81 E7        30.03R
HONOKAA*       NOT AVBL
KAWAIHAE MWT*  NOT AVBL
KAWAIHAE*      NOT AVBL
SOUTH POINT*   NOT AVBL
UPOLU AIRPORT* NOT AVBL
KAMUELA*       PTSUNNY   61  57  88 E12       30.11S
HAKALAU*         N/A     45  37  76 SW5         N/A
KALOKO-HONOKO* NOT AVBL
PALI 2*          N/A     64  55  72 N12G17      N/A
KEALAKOMO*       N/A     79  63  57 N18G26      N/A
KAUPULEHU*     NOT AVBL
KAPAPALA*        N/A     58  51  79 N3          N/A
LOWER KAHUKU*  NOT AVBL
PUHE CS*       NOT AVBL
PUHO CS*       NOT AVBL
PTA KEAMUKU*     N/A     55  52  88 SE3         N/A
WAIKOLOA*      NOT AVBL
$$

HIZ027>028-251700-
BIG ISLAND OF HAWAII INTERIOR AND SUMMMITS-

CITY           SKY/WX    TMP DP  RH WIND       PRES   REMARKS
BRADSHAW FIELD CLOUDY    54  39  56 SE7G24    30.32R
MK VISITOR CEN NOT AVBL
MAUNA KEA*       N/A     32 -13  14 SE23        N/A  WCI  19
MAUNA LOA*     NOT AVBL
MAUNA LOA 1*   NOT AVBL
PTA KIPUKA*      N/A     54  48  82 S8          N/A
PTA RANGE 17*    N/A     68  54  60 NE8G23      N/A
PTA WEST*        N/A     55  45  67 E5G15       N/A
NENE CABIN*    NOT AVBL
AHUMOA*        NOT AVBL
PTA PORTABLE*  NOT AVBL
PUU MALI*      NOT AVBL
$$

HIC003-251700-
NORTHWEST ISLANDS-

CITY           SKY/WX    TMP DP  RH WIND       PRES   REMARKS
MIDWAY ISLAND  PTCLDY    75  68  78 NW6       29.95S
MIDWAY NOS*    NOT AVBL
FRENCH FRIGATE NOT AVBL
$$

PHZ110>124-180-251700-
BUOY REPORTS

STATION/POSITION TIME  TEMP    WIND        PRES    WAVE   SWELL
                       AIR SEA DIR/SP/G            HT/PER HT/DIR
                 (UTC) (F)     (DEG/KT/KT) (MB)    (FT/S) (FT/D)
BUOY 51001       NOT AVBL
BUOY 51101       NOT AVBL
BUOY 51100       1500   78 80   70/ 21/ 25 1016.4
BUOY 51003       1500   81 82   80/ 12/ 16 1014.4F   5/10   5
BUOY 51004       1453   79 81   70/ 16/ 19 1014.2R   7/12
BARBERS PT BUOY  NOT AVBL
WAIMEA BAY BUOY  1600      81                N/A     4/12   2/350
KAILUA BAY BUOY  1600      81                N/A     6/11   2/360
LANAI BUOY       1600      82                N/A     2/12   2/190
BARBERS PT 2     1600      81                N/A     4/15   2/190
PAUWELA MAUI     1600      80                N/A     5/11   3/350
HILO             1600      81                N/A     6/ 8   2/360
KANEOHE BAY BUOY NOT AVBL
HANALEI KAUAI    NOT AVBL
KAHULUI HARBOR   1600   78 81  360/ 10/ 12 1015.7R
HONOLULU HARBOR  1600   76      CALM  /  1 1016.2R
KILO NALU        NOT AVBL
HILO HARBOR      1600   70     150/  5/  6 1016.1R
MOKUOLOE         1600      82              1016.5R
NAWILIWILI       1600      82                N/A
WHOTS BUOY       NOT AVBL
BUOY 51028       NOT AVBL
$$

......................KEY........................................
  SKY/WX - SKY CONDITIONS/PRESENT WEATHER
  TMP    - TEMPERATURE IN FAHRENHEIT
  DWPT   - DEWPOINT IN FAHRENHEIT
  RH     - RELATIVE HUMIDITY IN PERCENT
  WIND   - DIRECTION AND SPEED /MPH FOR ISLANDS...KTS FOR BUOYS/
  PRES   - MEAN SEA LEVEL PRESSURE IN INCHES OF HG
  VSB    - VISIBILITY IN MILES
  HX     - HEAT INDEX
  WCI    - WIND CHILL INDEX
  VRB    - VARIABLE WIND DIRECTION
  N/A    - NOT AVAILABLE



USA.gov is the U.S. government's official web portal to all federal, state and local government web resources and services.